Stations météo

Publicité
Paris/Charles De Gaulle, France (7157): Température de l'air & dewpoint: 16.11.2018 12:00:00 - 22.11.2018 12:00:00 (CET)Paris/Charles De Gaulle, France (7157): Température de l'air 5cm: 16.11.2018 12:00:00 - 22.11.2018 12:00:00 (CET)Paris/Charles De Gaulle, France (7157): Température de l'air -20cm & Température de l'air -100cm: 16.11.2018 12:00:00 - 22.11.2018 12:00:00 (CET)Paris/Charles De Gaulle, France (7157): Vitesse du vent & gusts: 16.11.2018 12:00:00 - 22.11.2018 12:00:00 (CET)Paris/Charles De Gaulle, France (7157): Direction du vent: 16.11.2018 12:00:00 - 22.11.2018 12:00:00 (CET)Paris/Charles De Gaulle, France (7157): reduced air pressure: 16.11.2018 12:00:00 - 22.11.2018 12:00:00 (CET)Paris/Charles De Gaulle, France (7157): visibility: 16.11.2018 12:00:00 - 22.11.2018 12:00:00 (CET)Paris/Charles De Gaulle, France (7157): Ensoleillement: 16.11.2018 12:00:00 - 22.11.2018 12:00:00 (CET)Paris/Charles De Gaulle, France (7157): Quantités de précipitations: 16.11.2018 12:00:00 - 22.11.2018 12:00:00 (CET)
Date & Time tt [°C] td [°C] tt 5cm [°C] tt -20cm [°C] tt -100cm [°C] ff [km/h] ff [knt] fx [km/h] fx [knt] dd ppp [hPa] vv [km] sd [min] rr [mm]
22.11.2018 12:00:00 2,7 2,4 3,0 5,7 11,6 19 10 33 18 SE 1018,1 0,8 0 0,0
22.11.2018 11:00:00 2,2 1,9 2,3 5,7 11,6 10 6 22 12 SSE 1018,4 0,4 0 0,0
22.11.2018 10:00:00 1,9 1,6 2,0 5,7 11,6 12 6 28 15 SE 1018,1 0,4 0 0,0
22.11.2018 09:00:00 1,8 1,5 1,5 5,7 11,7 11 6 24 13 SE 1017,9 0,2 0 0,0
22.11.2018 08:00:00 1,4 1,0 1,4 5,7 11,7 16 8 23 12 ESE 1017,8 0,3 0 0,0
22.11.2018 07:00:00 2,3 1,1 1,2 5,8 11,7 12 6 17 9 E 1017,4 2,5 0 0,0
22.11.2018 06:00:00 1,1 0,7 0,0 5,8 11,7 8 4 13 7 E 1017,5 2,5 0 0,0
22.11.2018 05:00:00 0,7 0,1 -0,1 5,9 11,7 10 5 11 6 ENE 1017,4 1,2 0 0,0
22.11.2018 04:00:00 1,2 0,5 0,5 5,9 11,7 9 5 11 6 NE 1017,4 2,6 0 0,0
22.11.2018 03:00:00 2,2 1,5 1,4 6,0 11,7 9 5 11 6 NE 1017,4 2,0 0 0,0
22.11.2018 02:00:00 1,5 0,6 0,9 6,0 11,8 9 5 10 6 NE 1017,4 3,4 0 0,0
22.11.2018 01:00:00 2,3 1,3 1,2 6,1 11,8 9 5 23 12 NNE 1017,4 3,8 0 0,0
22.11.2018 00:00:00 2,5 1,0 1,5 6,1 11,8 11 6 21 11 NNE 1017,4 6 0 0,0
21.11.2018 23:00:00 2,7 1,2 1,8 6,1 11,8 8 4 22 12 NE 1017,4 4,1 0 0,0
21.11.2018 22:00:00 3,4 1,6 3,1 6,2 11,8 13 7 24 13 NE 1017,2 4,7 0 0,0
21.11.2018 21:00:00 3,8 1,7 3,4 6,1 11,8 8 5 21 11 NE 1017,0 5 0 0,0
21.11.2018 20:00:00 4,2 1,4 3,7 6,2 11,9 15 8 24 13 NE 1016,9 9 0 0,0
21.11.2018 19:00:00 4,0 0,7 3,5 6,1 11,9 10 5 22 12 NNE 1016,6 8 0 0,0
21.11.2018 18:00:00 3,9 0,6 3,1 6,0 11,9 8 4 18 10 NE 1016,3 10 0 0,0
21.11.2018 17:00:00 4,2 0,2 3,4 5,9 11,9 14 7 23 12 ENE 1015,9 11 28 0,0
21.11.2018 16:00:00 5,3 -0,1 7,4 5,7 11,9 10 6 18 10 ENE 1015,3 10 60 0,0
21.11.2018 15:00:00 5,5 -0,6 7,8 5,4 11,9 11 6 20 11 ENE 1015,0 10 60 0,0
21.11.2018 14:00:00 4,9 0,5 7,1 5,2 11,9 10 6 19 10 ENE 1015,0 10 60 0,0
21.11.2018 13:00:00 4,1 1,0 6,5 5,1 12,0 11 6 16 9 E 1015,1 7 60 0,0
21.11.2018 12:00:00 3,7 0,9 5,0 5,1 12,0 9 5 28 15 E 1014,9 6 60 0,0
21.11.2018 11:00:00 2,5 -0,1 3,1 5,2 12,0 14 8 23 13 ESE 1014,7 4,5 57 0,0
21.11.2018 10:00:00 1,0 -0,6 0,1 5,2 12,0 13 7 23 12 E 1014,0 3,0 60 0,0
21.11.2018 09:00:00 -0,6 -1,4 -4,1 5,4 12,0 5 3 9 5 NNE 1013,3 2,5 24 0,0
21.11.2018 08:00:00 -1,8 -2,9 -3,9 5,4 12,0 2 1 16 9 SE 1012,5 0,3 0 0,0
21.11.2018 07:00:00 -1,1 -1,7 -2,2 5,5 12,1 9 5 15 8 ESE 1011,7 0,1 0 0,0
21.11.2018 06:00:00 -0,8 -1,5 -1,9 5,6 12,1 6 4 22 12 SE 1011,0 0,2 0 0,0
21.11.2018 05:00:00 -0,4 -1,2 -1,3 5,6 12,1 13 7 24 13 SE 1010,6 3,0 0 0,0
21.11.2018 04:00:00 -0,4 -1,2 -1,2 5,7 12,1 11 6 21 11 SSE 1009,9 3,3 0 0,0
21.11.2018 03:00:00 -0,1 -1,0 -0,7 5,8 12,2 10 6 16 9 SSE 1009,6 2,8 0 0,0
21.11.2018 02:00:00 0,8 -0,2 0,5 5,8 12,2 11 6 18 10 SSE 1008,8 3,3 0 0,0
21.11.2018 01:00:00 0,9 0,0 0,4 5,9 12,1 12 7 29 16 SSE 1008,0 3,3 0 0,0
21.11.2018 00:00:00 0,7 0,1 -0,6 6,0 12,2 13 7 28 15 SSE 1007,2 2,3 0 0,0
20.11.2018 23:00:00 0,3 -0,3 -0,6 6,1 12,2 10 6 26 14 SSE 1006,5 0,2 0 0,0
20.11.2018 22:00:00 0,8 0,2 0,0 6,1 12,2 11 6 22 12 SSE 1006,1 1,8 0 0,0
20.11.2018 21:00:00 0,9 0,2 0,0 6,2 12,2 11 6 21 11 SSE 1005,5 2,8 0 0,0
20.11.2018 20:00:00 1,3 0,3 0,7 6,2 12,2 14 7 33 18 SSE 1004,8 3,3 0 0,0
20.11.2018 19:00:00 1,8 0,6 1,5 6,2 12,2 14 7 23 12 SE 1004,3 3,5 0 0,0
20.11.2018 18:00:00 2,1 0,8 1,9 6,2 12,3 16 8 21 11 E 1003,8 6 0 0,0
20.11.2018 17:00:00 2,3 0,7 2,3 6,2 12,3 18 10 27 15 E 1003,5 4,7 0 0,0
20.11.2018 16:00:00 2,6 0,8 2,5 6,3 12,3 19 10 35 19 E 1003,2 7 0 0,0
20.11.2018 15:00:00 2,8 0,5 2,0 6,2 12,3 21 12 29 16 E 1002,8 7 0 0,0
20.11.2018 14:00:00 2,1 0,6 1,5 6,2 12,3 16 9 28 15 E 1003,0 5 0 0,0
20.11.2018 13:00:00 1,5 0,6 0,9 6,3 12,3 20 11 37 20 NE 1003,3 2,6 0 0,0
20.11.2018 12:00:00 0,7 0,1 0,3 6,3 12,3 21 11 39 21 NE 1003,6 1,0 0 0,6
20.11.2018 11:00:00 1,2 0,6 0,2 6,4 12,4 20 11 33 18 NE 1003,8 4,0 0 0,4
20.11.2018 10:00:00 1,3 0,6 0,7 6,4 12,4 22 12 34 19 NE 1004,1 2,2 0 0,4
20.11.2018 09:00:00 0,8 0,2 0,4 6,4 12,4 21 11 37 20 NE 1004,4 2,0 0 0,6
20.11.2018 08:00:00 1,6 0,6 1,2 6,5 12,4 25 13 37 20 ENE 1004,5 3,9 0 0,2
20.11.2018 07:00:00 1,9 0,6 1,6 6,5 12,4 23 13 40 22 NE 1004,5 9 0 0,0
20.11.2018 06:00:00 2,0 0,5 1,7 6,5 12,5 25 13 44 24 NE 1004,6 9 0 0,0
20.11.2018 05:00:00 2,3 0,8 1,8 6,6 12,4 23 12 42 23 NE 1005,0 9 0 0,0
20.11.2018 04:00:00 2,1 0,9 1,4 6,6 12,5 21 11 31 17 NE 1005,5 9 0 0,0
20.11.2018 03:00:00 1,6 0,9 1,0 6,6 12,5 19 10 35 19 NE 1006,1 8 0 0,4
20.11.2018 02:00:00 1,6 0,6 1,3 6,7 12,5 20 11 32 18 NE 1006,6 5 0 0,2
20.11.2018 01:00:00 2,4 0,8 1,8 6,7 12,5 25 13 49 26 NE 1007,1 10 0 0,0
20.11.2018 00:00:00 3,1 -0,4 2,9 6,7 12,5 22 12 47 26 NNE 1007,6 15 0 0,0
19.11.2018 23:00:00 3,4 0,1 2,7 6,8 12,5 23 13 42 23 NE 1008,1 15 0 0,0
19.11.2018 22:00:00 3,8 -0,2 3,6 6,8 12,6 25 14 48 26 NNE 1008,8 32 0 0,0
19.11.2018 21:00:00 4,1 0,1 3,8 6,8 12,6 23 13 40 22 NE 1009,4 15 0 0,0
19.11.2018 20:00:00 4,1 0,4 4,0 6,7 12,6 26 14 53 28 NE 1010,0 15 0 0,0
19.11.2018 19:00:00 4,5 0,6 4,2 6,7 12,6 24 13 59 32 NE 1010,3 15 0 0,0
19.11.2018 18:00:00 4,7 0,6 4,4 6,7 12,6 28 15 46 25 NNE 1010,9 15 0 0,0
19.11.2018 17:00:00 5,4 0,8 5,2 6,6 12,6 22 12 38 20 NE 1011,5 15 0 0,0
19.11.2018 16:00:00 5,6 0,8 5,8 6,5 12,6 24 13 57 31 NNE 1012,0 15 14 0,0
19.11.2018 15:00:00 5,9 0,0 6,0 6,3 12,7 32 17 55 30 NE 1012,4 15 19 0,0
19.11.2018 14:00:00 5,6 0,6 5,7 6,2 12,7 34 19 53 29 NE 1013,5 15 37 0,0
19.11.2018 13:00:00 5,2 -0,4 6,4 6,1 12,7 29 16 50 27 NE 1014,5 15 60 0,0
19.11.2018 12:00:00 4,2 -1,2 4,7 6,2 12,7 29 16 59 32 NE 1015,8 15 60 0,0
19.11.2018 11:00:00 2,5 -2,6 2,8 6,2 12,7 33 18 57 31 NNE 1016,4 15 60 0,0
19.11.2018 10:00:00 0,9 -3,8 0,6 6,4 12,7 31 17 52 28 NNE 1016,8 15 60 0,0
19.11.2018 09:00:00 -0,5 -4,9 -1,6 6,5 12,8 30 16 65 35 NNE 1017,0 15 27 0,0
19.11.2018 08:00:00 -1,2 -5,4 -1,5 6,6 12,8 20 11 38 21 NNE 1017,4 15 0 0,0
19.11.2018 07:00:00 -0,9 -5,3 -1,2 6,8 12,8 13 7 27 15 N 1017,7 15 0 0,0
19.11.2018 06:00:00 -0,4 -4,8 -0,9 6,9 12,8 13 7 35 19 N 1017,7 15 0 0,0
19.11.2018 05:00:00 -0,5 -4,2 -0,8 7,0 12,8 19 10 43 23 N 1018,0 15 0 0,0
19.11.2018 04:00:00 0,1 -3,6 -0,4 7,2 12,8 17 9 27 15 N 1018,3 12 0 0,0
19.11.2018 03:00:00 0,6 -3,3 0,1 7,3 12,8 14 8 22 12 N 1019,0 13 0 0,0
19.11.2018 02:00:00 0,8 -2,8 0,1 7,4 12,8 16 9 28 15 N 1019,2 12 0 0,0
19.11.2018 01:00:00 1,2 -2,4 0,7 7,6 12,8 14 8 24 13 N 1019,7 12 0 0,0
19.11.2018 00:00:00 2,1 -1,9 1,4 7,7 12,8 13 7 30 16 N 1020,0 15 0 0,0
18.11.2018 23:00:00 2,7 -1,3 2,2 7,8 12,9 15 8 35 19 NNE 1020,3 15 0 0,0
18.11.2018 22:00:00 3,3 -0,9 2,6 7,9 12,9 22 12 37 20 NE 1020,6 15 0 0,0
18.11.2018 21:00:00 3,6 -0,4 3,1 8,0 12,9 16 8 29 16 NNE 1020,6 15 0 0,0
18.11.2018 20:00:00 4,2 0,2 3,6 8,0 12,9 16 9 37 20 NNE 1020,6 15 0 0,0
18.11.2018 19:00:00 5,3 0,8 4,6 8,0 12,9 15 8 37 20 NNE 1021,0 15 0 0,0
18.11.2018 18:00:00 5,7 -0,4 4,1 8,0 12,9 11 6 24 13 NNE 1021,2 33 0 0,0
18.11.2018 17:00:00 7,6 -0,4 7,1 7,8 12,9 18 10 34 18 NE 1021,2 15 31 0,0
18.11.2018 16:00:00 8,8 -0,5 10,4 7,6 12,9 18 10 42 23 ENE 1021,6 15 60 0,0
18.11.2018 15:00:00 8,5 -0,5 9,9 7,5 13,0 20 11 37 20 ENE 1021,7 15 55 0,0
18.11.2018 14:00:00 7,9 -0,6 9,1 7,3 13,0 24 13 40 22 ENE 1022,2 15 60 0,0
18.11.2018 13:00:00 6,6 -0,6 8,0 7,1 13,0 23 13 38 21 NE 1023,0 15 60 0,0
18.11.2018 12:00:00 5,5 -0,8 7,2 7,1 13,0 24 13 37 20 ENE 1024,0 15 60 0,0
18.11.2018 11:00:00 4,6 -1,0 5,3 7,2 13,0 22 12 34 18 ENE 1024,1 15 60 0,0
18.11.2018 10:00:00 3,3 -1,3 3,5 7,3 13,0 21 11 37 20 ENE 1024,2 15 60 0,0
18.11.2018 09:00:00 2,1 -1,3 0,5 7,4 13,0 21 11 32 18 NE 1024,4 15 29 0,0
18.11.2018 08:00:00 1,0 -1,9 0,4 7,5 13,0 17 9 32 17 NE 1024,1 15 0 0,0
18.11.2018 07:00:00 1,0 -1,9 -0,2 7,7 13,0 20 11 30 16 NE 1024,0 15 0 0,0
18.11.2018 06:00:00 1,1 -1,6 0,1 7,8 13,0 19 10 38 20 NE 1024,0 15 0 0,0
18.11.2018 05:00:00 0,9 -1,5 0,3 8,0 13,0 19 11 36 20 NE 1023,8 15 0 0,0
18.11.2018 04:00:00 0,7 -1,4 -0,2 8,1 13,1 18 10 27 14 NE 1024,4 15 0 0,0
18.11.2018 03:00:00 1,5 -1,2 0,7 8,2 13,1 16 9 20 11 NE 1024,4 15 0 0,0
18.11.2018 02:00:00 3,0 -0,6 2,0 8,4 13,1 15 8 24 13 NE 1024,5 15 0 0,0
18.11.2018 01:00:00 3,3 -0,3 2,6 8,5 13,1 16 9 21 11 ENE 1024,6 15 0 0,0
18.11.2018 00:00:00 3,6 0,3 2,6 8,6 13,1 15 8 29 16 NE 1024,8 15 0 0,0
17.11.2018 23:00:00 3,8 0,1 3,1 8,8 13,1 19 11 34 18 ENE 1024,4 15 0 0,0
17.11.2018 22:00:00 4,4 0,4 3,6 8,9 13,1 17 9 25 13 ENE 1024,4 15 0 0,0
17.11.2018 21:00:00 4,6 0,9 4,0 9,0 13,1 18 10 31 17 ENE 1024,3 18 0 0,0
17.11.2018 20:00:00 5,3 1,4 3,1 9,1 13,1 17 9 34 18 NE 1024,3 10 0 0,0
17.11.2018 19:00:00 5,0 1,5 3,8 9,2 13,2 17 9 22 12 NE 1024,2 10 0 0,0
17.11.2018 18:00:00 5,9 2,4 4,5 9,2 13,2 18 10 26 14 NE 1024,0 10 0 0,0
17.11.2018 17:00:00 6,9 2,6 6,1 9,0 13,2 18 10 33 18 ENE 1023,8 10 34 0,0
17.11.2018 16:00:00 7,6 2,5 8,8 8,9 13,1 23 12 34 19 ENE 1023,5 15 60 0,0
17.11.2018 15:00:00 7,8 2,7 9,9 8,8 13,1 24 13 39 21 ENE 1023,8 15 55 0,0
17.11.2018 14:00:00 7,7 2,8 8,1 8,6 13,2 19 10 30 16 ENE 1024,0 10 56 0,0
17.11.2018 13:00:00 6,4 2,8 7,0 8,6 13,2 20 11 33 18 ENE 1024,6 8 43 0,0
17.11.2018 12:00:00 5,6 2,2 7,3 8,6 13,2 18 10 30 16 ENE 1025,1 8 56 0,0
17.11.2018 11:00:00 4,9 1,9 5,7 8,6 13,2 19 11 30 16 ENE 1025,6 8 60 0,0
17.11.2018 10:00:00 3,0 1,8 2,5 8,8 13,2 18 10 28 15 NE 1025,4 6 60 0,0
17.11.2018 09:00:00 1,3 0,7 -0,1 9,0 13,2 18 10 34 19 NE 1025,6 3,4 31 0,0
17.11.2018 08:00:00 0,4 0,1 -1,1 9,1 13,2 18 10 31 17 NE 1025,5 2,5 0 0,0
17.11.2018 07:00:00 0,2 -0,1 -0,5 9,3 13,2 10 5 23 12 NE 1025,4 1,2 0 0,0
17.11.2018 06:00:00 -0,1 -0,4 -1,0 9,4 13,2 10 6 22 12 NE 1025,6 0,2 0 0,0
17.11.2018 05:00:00 0,3 -0,1 0,2 9,5 13,2 6 3 11 6 ENE 1026,0 0,1 0 0,0
17.11.2018 04:00:00 2,4 1,8 2,4 9,7 13,2 6 4 13 7 E 1026,0 0,2 0 0,0
17.11.2018 03:00:00 3,1 2,5 2,0 9,8 13,2 8 4 17 9 E 1026,4 0,2 0 0,0
17.11.2018 02:00:00 3,3 2,6 2,2 9,9 13,2 14 8 24 13 ENE 1025,9 2,3 0 0,0
17.11.2018 01:00:00 3,1 2,7 2,0 10,0 13,2 11 6 24 13 NE 1025,7 1,8 0 0,0
17.11.2018 00:00:00 3,9 3,5 3,4 10,1 13,3 13 7 24 13 NE 1026,0 1,8 0 0,0
16.11.2018 23:00:00 5,1 4,4 5,1 10,2 13,3 17 9 24 13 ENE 1026,0 2,3 0 0,0
16.11.2018 22:00:00 5,8 5,2 5,9 10,2 13,2 12 7 22 12 E 1025,9 2,3 0 0,0
16.11.2018 21:00:00 5,8 5,7 5,8 10,3 13,3 15 8 25 13 E 1025,7 1,0 0 0,0
16.11.2018 20:00:00 5,7 5,6 5,7 10,3 13,3 17 9 26 14 E 1026,1 0,4 0 0,0
16.11.2018 19:00:00 5,8 5,7 5,8 10,4 13,3 16 9 29 15 ENE 1025,9 0,4 0 0,0
16.11.2018 18:00:00 6,1 6,0 6,1 10,4 13,3 15 8 24 13 ENE 1025,6 0,3 0 0,0
16.11.2018 17:00:00 6,5 6,4 6,3 10,4 13,3 12 6 20 11 ENE 1025,6 0,2 0 0,0
16.11.2018 16:00:00 6,2 6,1 6,5 10,4 13,3 13 7 25 14 E 1025,8 0,5 0 0,0
16.11.2018 15:00:00 6,1 6,0 6,6 10,4 13,3 14 8 25 14 E 1025,9 0,5 0 0,0
16.11.2018 14:00:00 6,1 6,0 6,6 10,4 13,3 13 7 24 13 E 1026,1 0,5 0 0,0
16.11.2018 13:00:00 6,1 6,0 6,6 10,4 13,3 13 7 21 11 E 1026,3 0,3 0 0,0
16.11.2018 12:00:00 6,1 6,0 6,7 10,4 13,3 13 7 23 13 E 1026,4 0,3 0 0,0

tt = Température de l'air
td = dewpoint
tt 5cm = Température de l'air 5cm
tt -20cm = Température de l'air -20cm
tt -100cm = Température de l'air -100cm
ff = Vitesse du vent
fx = gusts
dd = Direction du vent
ppp = reduced air pressure
vv = visibility
sd = Ensoleillement
rr = Quantités de précipitations

stations d'obs. à proximité